Overview Statistics Trail Chart Weather Telemetry Raw packets
 

This is the latest recevied weather packets stored in our database for station/object IU5GBO-13. If no packets are shown the sender has not sent any weather packets the latest 10 day(s).

<< 31 32 33 34 35 36 37 >>
Time Temp. Humidity Pressure Rain* Wind** Luminosity Snow
1777593974 11.11° C 36% 1023.3 hPa - - - -
1777593377 11.67° C 36% 1023.2 hPa - - - -
1777592773 12.22° C 36% 1023.2 hPa - - - -
1777592173 12.22° C 36% 1023.1 hPa - - - -
1777591574 12.22° C 35% 1023.2 hPa - - - -
1777590973 12.78° C 36% 1023.1 hPa - - - -
1777590374 12.78° C 36% 1023 hPa - - - -
1777589773 12.78° C 34% 1022.8 hPa - - - -
1777589174 13.33° C 29% 1022.7 hPa - - - -
1777588573 13.33° C 27% 1022.6 hPa - - - -
1777587974 13.89° C 28% 1022.7 hPa - - - -
1777587374 13.89° C 33% 1022.6 hPa - - - -
1777586774 13.89° C 37% 1022.7 hPa - - - -
1777586173 13.89° C 37% 1022.6 hPa - - - -
1777585573 14.44° C 36% 1022.4 hPa - - - -
1777584974 14.44° C 36% 1022.4 hPa - - - -
1777584373 14.44° C 37% 1022.3 hPa - - - -
1777583773 14.44° C 37% 1022.4 hPa - - - -
1777583174 14.44° C 36% 1022.3 hPa - - - -
1777582573 14.44° C 35% 1022.1 hPa - - - -
1777581973 14.44° C 35% 1022.1 hPa - - - -
1777581373 15° C 34% 1022 hPa - - - -
1777580774 15° C 33% 1021.8 hPa - - - -
1777580174 15° C 32% 1021.9 hPa - - - -
1777579573 15.56° C 30% 1021.7 hPa - - - -

* Rain since midnight (hover to see other rain measurements)
** Current wind speed in m/s (hover to see current wind gust speed)